| time (UTC) | temp C | wind direction | speed KPH | gust KPH | rain 1hr cm | rain 24hr cm | rain mn cm | humidity % | barometer mb |
| 20260505153049 | 13 | 323 | 3.2 | 17.7 | 0.00 | 0.00 | 0.00 | 40 | 1014.7 |
| 20260505151541 | 13 | 270 | 1.6 | 19.3 | 0.00 | 0.00 | 0.00 | 41 | 1015.0 |
| 20260505140143 | 12 | 190 | 1.6 | 8.0 | 0.00 | 0.00 | 0.00 | 39 | 1014.7 |
| 20260505130104 | 12 | 0 | 3.2 | 16.1 | 0.00 | 0.00 | 0.00 | 44 | 1015.1 |
| 20260505124544 | 12 | 303 | 1.6 | 12.9 | 0.00 | 0.00 | 0.00 | 48 | 1015.1 |
| 20260505123044 | 12 | 0 | 0.0 | 8.0 | 0.00 | 0.00 | 0.00 | 47 | 1014.5 |
| 20260505121548 | 12 | 0 | 0.0 | 4.8 | 0.00 | 0.00 | 0.00 | 45 | 1014.4 |
| 20260505120050 | 12 | 0 | 0.0 | 8.0 | 0.00 | 0.00 | 0.00 | 45 | 1014.2 |
| 20260505114541 | 12 | 0 | 1.6 | 8.0 | 0.00 | 0.00 | 0.00 | 44 | 1013.9 |
| 20260505113046 | 13 | 313 | 1.6 | 9.7 | 0.00 | 0.00 | 0.00 | 44 | 1013.8 |
| 20260505111542 | 13 | 9 | 0.0 | 11.3 | 0.00 | 0.00 | 0.00 | 42 | 1014.1 |
| 20260505101543 | 13 | 0 | 4.8 | 17.7 | 0.00 | 0.00 | 0.00 | 38 | 1014.0 |
| 20260505100043 | 13 | 0 | 0.0 | 4.8 | 0.00 | 0.00 | 0.00 | 37 | 1013.9 |
| 20260505094541 | 13 | 344 | 4.8 | 16.1 | 0.00 | 0.00 | 0.00 | 36 | 1013.9 |
| 20260505093041 | 13 | 65 | 0.0 | 6.4 | 0.00 | 0.00 | 0.00 | 37 | 1013.6 |
| 20260505091540 | 13 | 331 | 1.6 | 14.5 | 0.00 | 0.00 | 0.00 | 36 | 1013.7 |
| 20260505090040 | 13 | 57 | 4.8 | 12.9 | 0.00 | 0.00 | 0.00 | 36 | 1013.9 |
| 20260505084540 | 14 | 63 | 1.6 | 11.3 | 0.00 | 0.00 | 0.00 | 36 | 1014.4 |
| 20260505083038 | 14 | 355 | 1.6 | 12.9 | 0.00 | 0.00 | 0.00 | 36 | 1014.6 |
| 20260505081550 | 14 | 360 | 0.0 | 11.3 | 0.00 | 0.00 | 0.00 | 36 | 1014.6 |
| 20260505080047 | 14 | 32 | 1.6 | 11.3 | 0.00 | 0.00 | 0.00 | 36 | 1014.9 |
| 20260505074541 | 15 | 0 | 3.2 | 16.1 | 0.00 | 0.00 | 0.00 | 35 | 1015.2 |
| 20260505073050 | 15 | 97 | 6.4 | 14.5 | 0.00 | 0.00 | 0.00 | 34 | 1015.2 |
| 20260505071549 | 15 | 355 | 1.6 | 16.1 | 0.00 | 0.00 | 0.00 | 34 | 1015.1 |
| 20260505070045 | 15 | 244 | 3.2 | 8.0 | 0.00 | 0.00 | 0.00 | 32 | 1014.6 |
| 20260505064543 | 15 | 246 | 3.2 | 19.3 | 0.00 | 0.00 | 0.00 | 31 | 1014.5 |
| 20260505063040 | 16 | 305 | 8.0 | 38.6 | 0.00 | 0.00 | 0.00 | 29 | 1014.5 |
| 20260505061556 | 16 | 298 | 1.6 | 9.7 | 0.00 | 0.00 | 0.00 | 28 | 1014.4 |
| 20260505060046 | 16 | 276 | 3.2 | 17.7 | 0.00 | 0.00 | 0.00 | 28 | 1014.4 |
| 20260505054552 | 16 | 259 | 4.8 | 12.9 | 0.00 | 0.00 | 0.00 | 27 | 1014.4 |
| 20260505053053 | 17 | 208 | 4.8 | 17.7 | 0.00 | 0.00 | 0.00 | 27 | 1014.4 |
| 20260505051538 | 17 | 238 | 9.7 | 19.3 | 0.00 | 0.00 | 0.00 | 27 | 1014.3 |
| 20260505041542 | 18 | 258 | 6.4 | 22.5 | 0.00 | 0.00 | 0.00 | 26 | 1013.9 |
| 20260505040043 | 18 | 259 | 1.6 | 9.7 | 0.00 | 0.00 | 0.00 | 27 | 1013.8 |
| 20260505034540 | 18 | 246 | 1.6 | 12.9 | 0.00 | 0.00 | 0.00 | 27 | 1013.7 |
| 20260505033044 | 18 | 0 | 3.2 | 12.9 | 0.00 | 0.00 | 0.00 | 28 | 1013.5 |
| 20260505031541 | 18 | 283 | 1.6 | 8.0 | 0.00 | 0.00 | 0.00 | 28 | 1013.3 |
| 20260505030040 | 18 | 0 | 0.0 | 4.8 | 0.00 | 0.00 | 0.00 | 27 | 1013.0 |
| 20260505024545 | 18 | 289 | 3.2 | 6.4 | 0.00 | 0.00 | 0.00 | 27 | 1012.9 |
| 20260505023047 | 18 | 294 | 4.8 | 14.5 | 0.00 | 0.00 | 0.00 | 26 | 1013.0 |
| 20260505021542 | 18 | 243 | 3.2 | 19.3 | 0.00 | 0.00 | 0.00 | 25 | 1013.0 |
| 20260505020041 | 19 | 333 | 6.4 | 19.3 | 0.00 | 0.00 | 0.00 | 25 | 1012.9 |
| 20260505014548 | 19 | 304 | 6.4 | 24.1 | 0.00 | 0.00 | 0.00 | 24 | 1012.9 |
| 20260505013044 | 20 | 294 | 8.0 | 24.1 | 0.00 | 0.00 | 0.00 | 23 | 1012.8 |
| 20260505011549 | 20 | 302 | 6.4 | 16.1 | 0.00 | 0.00 | 0.00 | 22 | 1012.6 |
| 20260505010040 | 20 | 229 | 9.7 | 24.1 | 0.00 | 0.00 | 0.00 | 21 | 1012.6 |
| 20260505004541 | 20 | 272 | 12.9 | 29.0 | 0.00 | 0.00 | 0.00 | 20 | 1012.5 |
| 20260505003039 | 21 | 301 | 11.3 | 25.7 | 0.00 | 0.00 | 0.00 | 19 | 1012.6 |
| 20260505001534 | 21 | 250 | 8.0 | 22.5 | 0.00 | 0.00 | 0.00 | 18 | 1012.6 |
| 20260505000040 | 21 | 199 | 9.7 | 19.3 | 0.00 | 0.00 | 0.00 | 18 | 1012.2 |
| 20260504234542 | 21 | 248 | 9.7 | 25.7 | 0.00 | 0.00 | 0.00 | 17 | 1012.3 |
| 20260504233043 | 22 | 286 | 6.4 | 22.5 | 0.00 | 0.00 | 0.00 | 17 | 1012.4 |
| 20260504231539 | 22 | 275 | 11.3 | 25.7 | 0.00 | 0.00 | 0.00 | 17 | 1012.5 |
| 20260504230035 | 22 | 228 | 8.0 | 24.1 | 0.00 | 0.00 | 0.00 | 17 | 1012.2 |
| 20260504224542 | 22 | 280 | 8.0 | 19.3 | 0.00 | 0.00 | 0.00 | 17 | 1012.5 |
| 20260504223043 | 22 | 290 | 11.3 | 22.5 | 0.00 | 0.00 | 0.00 | 17 | 1012.9 |
| 20260504221543 | 22 | 285 | 11.3 | 29.0 | 0.00 | 0.00 | 0.00 | 17 | 1012.9 |
| 20260504220046 | 22 | 290 | 14.5 | 29.0 | 0.00 | 0.00 | 0.00 | 17 | 1013.2 |
| 20260504214554 | 22 | 315 | 6.4 | 20.9 | 0.00 | 0.00 | 0.00 | 18 | 1013.4 |
| 20260504213056 | 22 | 246 | 6.4 | 27.4 | 0.00 | 0.00 | 0.00 | 18 | 1013.7 |
| 20260504211542 | 22 | 311 | 4.8 | 19.3 | 0.00 | 0.00 | 0.00 | 19 | 1013.8 |
| 20260504210041 | 22 | 323 | 8.0 | 24.1 | 0.00 | 0.00 | 0.00 | 19 | 1014.1 |
| 20260504204545 | 21 | 287 | 8.0 | 32.2 | 0.00 | 0.00 | 0.00 | 19 | 1014.4 |
| 20260504203038 | 21 | 333 | 11.3 | 27.4 | 0.00 | 0.00 | 0.00 | 19 | 1014.7 |
| 20260504201543 | 21 | 265 | 6.4 | 25.7 | 0.00 | 0.00 | 0.00 | 18 | 1015.1 |
| 20260504200049 | 21 | 196 | 9.7 | 19.3 | 0.00 | 0.00 | 0.00 | 17 | 1015.4 |
| 20260504194544 | 21 | 273 | 11.3 | 27.4 | 0.00 | 0.00 | 0.00 | 19 | 1015.3 |
| 20260504193039 | 22 | 301 | 9.7 | 22.5 | 0.00 | 0.00 | 0.00 | 21 | 1015.5 |
| 20260504191551 | 21 | 268 | 4.8 | 20.9 | 0.00 | 0.00 | 0.00 | 20 | 1015.8 |
| 20260504190043 | 21 | 242 | 3.2 | 22.5 | 0.00 | 0.00 | 0.00 | 19 | 1016.0 |
| 20260504184552 | 21 | 268 | 9.7 | 29.0 | 0.00 | 0.00 | 0.00 | 19 | 1016.3 |
| 20260504183049 | 21 | 248 | 8.0 | 20.9 | 0.00 | 0.00 | 0.00 | 21 | 1016.4 |
| 20260504181546 | 20 | 221 | 9.7 | 24.1 | 0.00 | 0.00 | 0.00 | 23 | 1016.4 |
| 20260504180039 | 19 | 282 | 6.4 | 22.5 | 0.00 | 0.00 | 0.00 | 24 | 1016.8 |
| 20260504174540 | 19 | 214 | 6.4 | 25.7 | 0.00 | 0.00 | 0.00 | 25 | 1016.7 |
| 20260504173041 | 19 | 355 | 3.2 | 17.7 | 0.00 | 0.00 | 0.00 | 26 | 1016.8 |
| 20260504171541 | 19 | 307 | 6.4 | 17.7 | 0.00 | 0.00 | 0.00 | 28 | 1016.9 |